Location: Moena
(46.3667°N, 11.6500°E)
Time: 08:42:18
(UTC+00:00)

GP-B - Pass Details

Date: 16 June 2021
Orbit: 631 x 635 km, 89.8° (Epoch: 28 July)

Event Time Altitude Azimuth Distance (km) Brightness Sun altitude
Rises 00:45:29 0° 345° (NNW) 2,944 7.4 -17.3°
Reaches altitude 10° 00:48:25 10° 325° (NW) 2,029 6.1 -17.1°
Maximum altitude 00:51:10 16° 287° (WNW) 1,642 5.2 -16.9°
Enters shadow 00:52:54 13° 260° (W) 1,800 5.1 -16.8°
